Location: Schommer Observatory
(40.5200°N, 74.4500°W)
Time: 16:48:40
(UTC-04:00)

Envisat - Pass Details

Date: 07 October 2017
Orbit: 764 x 766 km, 98.2° (Epoch: 17 October)

Event Time Altitude Azimuth Distance (km) Brightness Sun altitude
Exits shadow 19:38:11 20° 82° (E) 1,731 4.2 -13.8°
Maximum altitude 19:39:15 21° 65° (ENE) 1,670 4.3 -14.0°
Drops below altitude 10° 19:42:59 10° 17° (NNE) 2,310 5.4 -14.7°
Sets 19:45:47 0° 2° (N) 3,240 6.3 -15.3°
